This is the latest recevied weather packets stored in our database for station/object KF0JHJ. If no packets are shown the sender has not sent any weather packets the latest 10 day(s).
| Time | Temp. | Humidity | Pressure | Rain* | Wind** | Luminosity | Snow |
|---|---|---|---|---|---|---|---|
| 1777671627 | 12.22° C | 39% | 1016.2 hPa | - | - | 460 W/m² | - |
| 1777671324 | 11.11° C | 41% | 1016.2 hPa | - | - | 506 W/m² | - |
| 1777671020 | 11.11° C | 42% | 1016.5 hPa | - | - | 106 W/m² | - |
| 1777670716 | 12.78° C | 38% | 1016.2 hPa | - | - | 127 W/m² | - |
| 1777670414 | 12.78° C | 35% | 1016.2 hPa | - | - | 573 W/m² | - |
| 1777670110 | 13.33° C | 36% | 1016.2 hPa | - | - | 574 W/m² | - |
| 1777669809 | 12.22° C | 39% | 1016.3 hPa | - | - | 553 W/m² | - |
| 1777669504 | 10.56° C | 39% | 1016.3 hPa | - | - | 160 W/m² | - |
| 1777669201 | 10.56° C | 40% | 1016.5 hPa | - | - | 127 W/m² | - |
| 1777668898 | 11.11° C | 40% | 1016.7 hPa | - | - | 124 W/m² | - |
| 1777668595 | 12.22° C | 39% | 1016.6 hPa | - | - | 152 W/m² | - |
| 1777668291 | 12.78° C | 38% | 1016.3 hPa | - | - | 717 W/m² | - |
| 1777667988 | 13.33° C | 40% | 1016.5 hPa | - | - | 696 W/m² | - |
| 1777667684 | 12.78° C | 37% | 1016.6 hPa | - | - | 703 W/m² | - |
| 1777667382 | 12.78° C | 37% | 1016.7 hPa | - | - | 700 W/m² | - |
| 1777667079 | 13.33° C | 37% | 1016.7 hPa | - | - | 689 W/m² | - |
| 1777666775 | 12.78° C | 38% | 1016.7 hPa | - | - | 588 W/m² | - |
| 1777666472 | 13.33° C | 41% | 1016.6 hPa | - | - | 308 W/m² | - |
| 1777666169 | 12.22° C | 42% | 1016.8 hPa | - | - | 711 W/m² | - |
| 1777665866 | 11.67° C | 41% | 1016.5 hPa | - | - | 175 W/m² | - |
| 1777665564 | 11.67° C | 41% | 1017 hPa | - | - | 781 W/m² | - |
| 1777665260 | 11.67° C | 40% | 1016.7 hPa | - | - | 749 W/m² | - |
| 1777664956 | 12.22° C | 45% | 1016.8 hPa | - | - | 240 W/m² | - |
| 1777664652 | 11.11° C | 41% | 1016.7 hPa | - | - | 656 W/m² | - |
| 1777664348 | 11.11° C | 39% | 1016.7 hPa | - | - | 159 W/m² | - |
* Rain since midnight (hover to see other rain measurements)
** Current wind speed in m/s (hover to see current wind gust speed)